#timestamp,LO_Frequency,Hit,StdDev 
1696460415.8,286046998.6,P
1696460435.6,286046998.8,N
1696460455.4,286046998.1,N
1696460475.3,286046998.7,N
1696460495.1,286046998.6,N
1696460515.9,286046998.3,N
1696460535.7,286047001.2,N
1696460555.5,286046998.1,N
1696460575.4,286047001.0,N
1696460595.2,286047000.9,N
1696460615.0,286047000.8,N
1696460615.9,286047000.8,N
1696460635.8,286047000.4,N
1696460655.6,286047000.9,N
1696460675.5,286047002.4,N
1696460695.3,286047002.3,N
1696460715.1,286047002.4,N
1696460735.9,286046999.7,N
1696460755.7,286047000.2,N
1696460775.5,286047000.1,N
1696460795.4,286047000.4,N
1696460815.2,286047002.4,N
1696460835.1,286047000.1,N
1696460836.0,286047000.1,N
1696460855.8,286047000.0,N
1696460875.6,286047000.7,N
1696460895.5,286046998.1,N
1696460915.3,286047000.0,N
1696460935.1,286046999.9,N
1696460955.9,286047000.3,N
1696460975.7,286047002.4,N
1696460995.6,286047002.6,N
1696461015.4,286047002.8,N
1696461035.2,286047002.3,N
1696461055.1,286047002.4,N
1696461056.0,286047002.4,N
1696461075.8,286047002.1,N
1696461095.6,286047001.9,N
1696461115.5,286047001.5,N
1696461135.3,286047001.7,N
1696461155.2,286047002.0,N
1696461175.9,286047002.0,N
1696461195.7,286047002.0,N
1696461215.6,286047001.4,N
1696461235.4,286047001.7,N
1696461255.2,286047001.9,N
1696461275.1,286047001.9,N
1696461276.0,286047001.9,N
1696461295.8,286047003.3,N
1696461315.7,286047003.0,N
1696461335.5,286047003.1,N
1696461355.3,286047003.2,N
1696461375.2,286047003.1,N
1696461395.0,286047003.3,N
1696461395.9,286047003.3,N
1696461415.8,286047003.1,N
1696461435.6,286047006.0,Y
1696461455.4,286047004.0,P
1696461475.3,286047001.3,N
1696461495.1,286047003.8,P
1696461515.9,286047004.1,Y
1696461535.7,286047000.6,P
1696461555.5,286047000.9,N
1696461575.4,286047000.6,N
1696461595.2,286047000.5,N
1696461615.0,286046999.7,N
1696461615.9,286046999.7,N
1696461635.8,286047002.3,N
1696461655.6,286047001.9,N
1696461675.5,286047002.4,N
1696461695.3,286047004.3,Y
1696461715.1,286047002.3,P
1696461735.9,286047002.5,P
1696461755.7,286047002.3,P
1696461775.6,286047002.6,Y
1696461795.4,286047000.7,P
1696461815.2,286047001.2,N
1696461835.1,286046998.5,N
1696461836.0,286046998.5,N
1696461855.8,286047000.8,N
1696461875.7,286046998.4,N
1696461895.5,286046999.9,N
1696461915.3,286047000.0,N
1696461935.2,286047000.0,N
1696461955.0,286047000.3,N
1696461955.9,286047000.3,N
1696461975.7,286047000.0,N
1696461995.6,286047000.2,N
1696462015.4,286047002.0,N
1696462035.3,286047002.6,N
1696462055.1,286047002.0,N
1696462056.0,286047002.0,N
1696462075.8,286047001.6,N
1696462095.7,286047001.8,N
1696462115.5,286047004.4,Y
1696462135.3,286047001.3,P
1696462155.2,286047003.6,P
1696462175.0,286047004.1,P
1696462175.9,286047004.1,N
1696462195.8,286047003.8,N
1696462215.6,286047003.7,N
1696462235.4,286047005.9,Y
1696462255.3,286047002.1,P
1696462275.1,286047002.5,P
1696462295.9,286047002.3,P
1696462315.7,286047002.2,Y
1696462335.5,286047000.9,P
1696462355.4,286047000.5,N
1696462375.2,286046998.2,N
1696462395.0,286046998.1,N
1696462395.9,286046998.1,N
1696462415.8,286046999.8,N
1696462435.6,286047002.6,N
1696462455.5,286047002.8,N
1696462475.3,286047001.8,N
1696462495.1,286047001.4,N
1696462515.9,286047003.9,N
1696462535.7,286047003.2,N
1696462555.5,286047005.7,N
1696462575.4,286047007.6,Y
1696462595.2,286047003.1,P
1696462615.1,286047005.6,P
1696462616.0,286047005.6,P
1696462635.8,286047005.7,Y
1696462655.6,286047004.0,P
1696462675.5,286047001.7,P
1696462695.3,286047001.4,N
1696462715.2,286047004.3,Y
1696462735.9,286047001.2,P
1696462755.7,286047000.9,N
1696462775.6,286047000.3,N
1696462795.4,286046999.8,N
1696462815.2,286047000.0,N
1696462835.1,286047002.5,N
1696462836.0,286047002.5,N
1696462855.8,286047002.0,N
1696462875.7,286047002.2,N
1696462895.5,286047002.6,N
1696462915.3,286047002.6,N
1696462935.2,286047004.4,Y
1696462955.0,286047000.1,P
1696462955.9,286047000.1,N
1696462975.8,286046999.8,N
1696462995.6,286047000.0,N
1696463015.4,286046999.9,N
1696463035.3,286047000.0,N
1696463055.1,286047000.3,N
1696463075.8,286047001.0,N
1696463095.7,286047000.4,N
1696463115.5,286047000.3,N
1696463135.4,286047000.1,N
1696463155.2,286047002.3,Y
1696463175.0,286047000.3,P
1696463175.9,286047000.3,P
1696463195.8,286046999.8,P
1696463215.6,286047002.2,Y
1696463235.5,286047002.3,P
1696463255.3,286047002.4,N
1696463275.1,286047002.6,N
1696463295.9,286047002.3,N
1696463315.7,286047001.8,N
1696463335.5,286047002.8,Y
1696463355.4,286046998.6,P
1696463375.2,286046998.6,N
1696463395.1,286047000.6,N
1696463396.0,286047000.6,N
1696463415.8,286047001.0,N
1696463435.6,286047000.6,N
1696463455.5,286047000.7,N
1696463475.3,286047000.8,N
1696463495.1,286046998.3,N
1696463515.9,286047000.8,N
1696463535.7,286047000.4,N
1696463555.6,286047000.8,N
1696463575.4,286046999.8,N
1696463595.2,286047000.2,N
1696463615.1,286047000.2,N
1696463616.0,286047000.2,N
1696463635.8,286046999.7,N
1696463655.7,286047002.3,N
1696463675.5,286046999.9,N
1696463695.3,286047000.0,N
1696463715.2,286046999.7,N
1696463735.0,286047002.4,N
1696463735.9,286047002.4,N
1696463755.7,286047002.0,N
1696463775.6,286046999.7,N
1696463795.4,286047002.5,N
1696463815.3,286047002.4,N
1696463835.1,286047002.1,N
1696463836.0,286047002.1,N
1696463855.8,286047002.0,N
1696463875.7,286047002.7,N
1696463895.5,286047004.1,Y
1696463915.3,286047001.3,P
1696463935.2,286047001.6,P
1696463955.0,286047002.1,P
1696463955.9,286047002.1,Y
1696463975.8,286047000.7,P
1696463995.6,286047001.0,N
